Temperature
12 12 12 11 11 11 11 11 11 11 11 11 11 11 11 10 10 10 9 9 8 8 7 6 6 5 5 5 5 5 5 4 4 4 4 4 4 4 3 3 3 3 3
11 11 11 11 10 10 10 10 10 10 10 10 10 10 10 10 9 9 8 8 7 6 6 5 5 4 4 4 4 4 4 4 4 4 3 3 3 3 3 3 2 2 2
10 10 10 10 10 9 9 9 9 9 9 9 9 9 9 9 9 8 8 7 6 5 4 4 4 4 3 3 3 3 3 3 3 3 3 3 2 2 2 2 2 2 2
9 9 9 9 9 9 9 9 9 9 9 9 9 9 9 8 8 7 6 5 4 4 3 3 3 3 3 3 3 3 3 3 2 2 2 2 2 2 1 1 1 1 1
9 9 9 9 8 8 8 8 8 8 8 8 8 8 8 7 7 6 5 4 3 3 2 2 2 2 2 2 2 2 2 2 2 2 1 1 1 1 1 1 0 0 0
8 8 8 8 8 7 7 7 7 7 7 7 7 7 7 6 5 5 4 3 3 2 2 1 1 1 1 1 1 2 2 1 1 1 1 1 1 1 0 0 -0 -0 -0
8 7 7 7 7 7 7 7 7 7 7 7 7 6 6 5 4 4 3 2 2 1 1 1 1 1 1 1 1 1 1 1 1 1 1 0 0 -0 -0 -0 -0 -0 -0
7 7 7 7 7 6 6 6 6 6 6 6 6 5 5 4 3 3 2 2 1 1 1 1 1 0 0 0 0 0 0 0 0 0 0 -0 -0 -0 -1 -1 -1 -1 -1
6 6 6 6 6 6 6 6 6 5 5 5 5 4 4 3 2 2 2 1 1 0 0 0 0 -0 -0 -0 -0 -0 0 0 0 -0 -0 -0 -1 -1 -1 -1 -1 -1 -1
5 5 5 5 5 5 5 5 5 5 4 4 4 3 3 2 2 1 1 1 0 0 0 0 -0 -0 -0 -0 -0 -0 -0 -0 -0 -0 -1 -1 -1 -1 -1 -1 -1 -1 -1
4 4 4 4 5 5 4 4 4 4 4 3 3 3 2 1 1 1 0 0 0 0 0 0 -0 -0 -0 -1 -0 -0 -0 -1 -1 -1 -1 -1 -1 -1 -1 -1 -1 -1 -1
3 3 4 4 4 4 4 3 3 3 3 3 2 2 2 1 1 0 -0 -0 -0 -0 0 -0 -0 -0 -0 -1 -0 -1 -1 -1 -1 -1 -1 -1 -1 -2 -2 -2 -2 -2 -2
2 2 3 3 3 3 3 3 2 2 2 2 2 2 2 1 0 0 -0 -0 -0 -0 -0 -0 -1 -1 -1 -1 -1 -1 -1 -1 -1 -1 -1 -1 -2 -2 -2 -2 -2 -2 -2
1 2 2 2 2 2 2 2 2 2 2 2 2 2 1 1 1 0 -0 -0 -1 -0 -0 -1 -1 -1 -1 -1 -1 -1 -1 -1 -1 -1 -1 -1 -2 -2 -2 -2 -2 -3 -3
0 1 1 1 1 1 1 1 1 2 1 1 1 1 1 1 1 0 -0 -0 -0 -0 -1 -1 -1 -1 -1 -1 -1 -1 -1 -1 -1 -1 -1 -2 -2 -2 -2 -3 -3 -3 -3
-1 -0 0 0 0 1 1 1 1 1 1 1 1 1 1 1 0 -0 -0 -1 -1 -1 -1 -1 -1 -1 -1 -1 -1 -1 -1 -1 -1 -1 -2 -2 -2 -2 -3 -3 -3 -3 -3
-2 -1 -1 -1 -0 -0 -0 0 0 1 1 1 1 0 0 0 0 -0 -0 -1 -1 -1 -1 -0 -0 -0 -0 -1 -1 -1 -1 -1 -2 -2 -2 -2 -2 -2 -3 -3 -3 -3 -4
-2 -2 -2 -1 -1 -1 -1 -0 -0 0 0 0 0 0 0 0 -0 -0 -1 -1 -1 -1 -1 -0 0 -0 -0 -1 -1 -1 -1 -2 -2 -2 -2 -2 -2 -3 -3 -3 -3 -4 -4
-3 -3 -2 -2 -2 -2 -1 -1 -1 -1 -0 -0 0 0 0 -0 -0 -0 -1 -1 -1 -1 -0 -0 -0 -0 -0 -1 -1 -1 -1 -2 -2 -2 -2 -2 -3 -3 -3 -4 -4 -4 -4
-4 -4 -4 -3 -3 -3 -2 -2 -2 -1 -1 -1 -1 -0 -0 -0 -1 -1 -1 -1 -1 -1 -1 -0 -0 -1 -1 -1 -1 -1 -2 -2 -2 -2 -2 -3 -3 -4 -4 -4 -4 -5 -5
-4 -4 -4 -4 -4 -3 -3 -3 -2 -2 -2 -1 -1 -1 -1 -1 -0 -1 -0 -0 -0 -0 -0 -0 -1 -1 -1 -1 -1 -1 -2 -2 -2 -2 -3 -3 -4 -4 -4 -5 -5 -5 -5
-5 -5 -5 -5 -4 -4 -4 -3 -3 -2 -2 -2 -1 -1 -1 -1 -1 -1 -0 -0 -1 -1 -1 -1 -1 -1 -1 -1 -1 -1 -2 -2 -2 -2 -3 -3 -4 -4 -5 -5 -5 -6 -6
-5 -5 -5 -5 -5 -5 -4 -4 -3 -3 -3 -2 -2 -2 -1 -1 -1 -1 -1 -1 -1 -1 -1 -1 -1 -1 -1 -1 -1 -1 -2 -2 -2 -2 -3 -3 -4 -4 -5 -5 -5 -6 -6
-6 -6 -6 -6 -5 -5 -5 -5 -4 -4 -3 -3 -3 -2 -2 -2 -1 -1 -1 -1 -1 -1 -1 -1 -1 -1 -1 -1 -1 -2 -2 -2 -2 -3 -3 -4 -4 -5 -5 -5 -6 -6 -6
-6 -6 -6 -6 -6 -5 -5 -5 -5 -4 -4 -3 -3 -3 -2 -2 -2 -2 -2 -1 -1 -1 -1 -1 -2 -2 -2 -2 -2 -2 -2 -3 -3 -3 -4 -4 -5 -5 -5 -6 -6 -6 -7
-6 -6 -6 -6 -6 -6 -6 -5 -5 -5 -4 -4 -4 -3 -3 -3 -2 -2 -2 -2 -2 -2 -2 -2 -2 -2 -2 -2 -2 -3 -3 -3 -3 -4 -4 -5 -5 -6 -6 -6 -7 -7 -7
Wind_Speed
2 2 3 2 3 4 5 5 5 6 7 7 6 6 5 4 3 3 2 2 2 1 1 2 1 1 0 0 0 0 0 1 2 2 2 2 2 3 4 5 7 8 8
0 1 2 2 3 4 5 5 5 5 5 5 5 5 5 4 3 3 2 2 2 2 2 2 2 1 1 1 1 1 0 0 1 3 2 2 2 3 3 3 5 6 7
1 1 2 3 4 4 5 5 6 6 6 5 5 5 5 4 3 2 2 2 2 2 3 3 3 3 2 1 1 1 0 1 0 2 3 2 2 2 3 2 3 4 6
2 3 4 5 5 5 5 5 6 6 6 6 5 5 4 4 3 3 3 3 3 3 3 3 3 3 3 2 1 1 0 1 1 2 2 2 2 2 3 2 1 2 3
3 4 5 5 5 5 6 6 6 6 6 6 6 5 4 4 4 4 4 4 4 4 3 3 3 3 4 3 2 1 1 1 1 2 2 2 2 2 2 1 1 1 2
5 5 5 5 5 6 6 6 6 6 6 6 6 6 5 3 5 6 5 4 4 5 4 3 3 3 3 4 4 3 2 2 2 2 2 2 2 2 2 2 2 1 0
6 5 5 5 6 7 7 7 7 7 6 6 6 6 5 5 7 7 7 5 5 5 5 4 3 3 4 4 5 6 5 5 2 3 3 3 4 4 4 3 2 2 1
6 5 5 5 6 6 7 8 7 6 6 6 6 6 5 6 8 8 8 5 4 4 5 5 5 4 3 4 4 4 3 4 3 3 3 3 3 4 4 4 3 3 1
6 6 5 5 6 7 8 8 6 6 6 6 5 7 6 6 9 9 8 5 4 4 4 4 5 4 6 6 5 4 2 2 3 5 6 5 5 6 7 4 3 2 1
8 7 6 5 7 8 9 7 6 6 6 7 6 6 7 6 9 10 10 5 5 4 3 4 6 7 7 7 6 5 4 2 2 3 4 5 5 4 4 4 4 3 2
8 7 6 6 7 7 7 6 6 7 7 7 7 6 7 8 9 12 12 6 6 5 5 4 4 9 9 8 8 6 6 5 4 4 3 2 2 2 3 4 4 3 3
8 7 6 5 5 5 6 6 7 8 8 7 7 6 5 6 9 11 14 12 9 6 6 5 6 10 10 9 7 7 8 6 4 3 3 2 2 2 2 3 4 3 3
8 7 6 5 5 5 7 8 7 8 7 7 7 7 6 6 7 14 15 15 14 8 6 9 10 11 10 7 8 9 6 5 4 3 4 3 3 3 3 3 3 2 1
8 7 6 5 5 6 6 7 8 8 8 8 8 8 7 6 7 7 7 8 12 9 7 8 11 11 9 7 6 5 4 5 5 4 4 3 3 3 3 3 3 2 1
9 7 6 6 6 6 7 8 9 9 10 10 9 8 8 8 11 15 10 8 7 7 6 4 4 3 5 4 4 4 4 4 5 4 4 4 4 4 3 3 3 3 3
8 7 6 5 5 5 6 6 11 12 14 16 13 11 10 11 12 15 18 17 17 15 9 5 6 7 7 7 7 6 5 6 5 5 5 5 5 5 4 3 3 4 4
9 9 7 6 6 6 6 6 6 8 14 16 17 17 16 14 14 15 16 17 17 17 10 7 7 8 8 7 7 7 6 6 6 6 6 6 5 5 4 4 4 4 4
9 9 8 7 6 6 6 6 6 6 6 7 12 18 19 18 16 16 16 13 10 12 8 9 9 8 8 8 8 7 7 6 6 6 6 6 6 5 5 5 5 6 5
9 7 7 7 6 6 6 6 6 7 7 6 4 8 15 16 17 17 16 9 9 9 9 9 9 9 8 8 8 8 8 7 7 7 7 7 7 6 6 6 6 9 7
8 11 10 8 6 6 6 6 6 7 7 6 7 7 6 8 8 9 10 9 9 9 10 10 9 9 9 9 8 8 8 8 8 8 8 7 7 7 7 8 7 6 7
7 8 11 8 6 6 6 7 6 6 7 7 7 8 11 8 8 9 9 10 10 11 10 10 9 9 9 8 8 9 10 8 8 8 8 8 8 7 7 7 7 7 6
7 7 7 7 7 7 7 7 6 6 7 7 6 7 13 9 7 8 8 9 9 9 9 8 8 8 9 9 9 9 10 10 9 9 8 8 8 8 7 7 7 6 6
7 7 7 7 7 9 8 7 6 6 6 6 6 6 6 7 8 8 8 8 8 8 8 8 8 8 8 8 9 10 10 10 9 9 9 9 8 8 8 8 9 7 7
7 7 7 7 7 7 7 7 6 6 6 6 6 6 6 7 7 8 8 7 7 7 7 7 8 10 11 9 10 12 12 12 12 11 11 10 9 8 8 7 8 8 8
7 7 7 7 7 7 7 7 7 6 6 6 5 5 5 6 6 6 6 6 7 6 7 7 6 7 10 11 10 11 14 15 14 12 11 8 9 9 8 8 8 7 7
7 7 7 6 6 6 6 6 6 6 6 5 5 4 4 5 4 4 4 5 5 5 5 5 6 7 8 9 11 13 14 15 16 15 12 8 9 8 9 7 8 8 7
Wind_Direction
44 77 100 108 116 123 127 132 136 135 137 139 140 139 134 127 121 121 131 145 160 165 155 159 158 153 149 19 6 344 319 245 213 135 112 122 124 120 96 80 66 54 41
352 112 132 134 129 131 134 134 132 131 130 133 134 132 131 127 123 130 147 159 173 175 170 161 163 143 122 70 61 60 16 319 186 167 137 133 125 130 111 85 62 52 42
265 182 177 171 164 162 156 147 140 137 133 133 135 139 136 132 128 130 153 163 168 173 171 171 171 160 153 126 101 94 15 352 64 147 138 122 110 112 101 81 64 41 42
260 217 212 203 191 179 166 157 152 149 148 148 146 144 143 143 144 147 154 151 147 143 147 155 161 168 168 159 145 132 112 81 87 123 130 123 115 103 108 107 84 39 25
276 246 233 216 193 177 170 165 158 156 156 153 146 144 149 153 163 166 163 160 155 149 140 137 145 155 164 158 151 160 140 139 138 143 144 131 134 133 142 129 127 57 28
271 258 241 210 194 188 180 169 162 158 155 155 158 159 168 179 186 184 172 167 168 167 161 144 132 128 139 133 117 117 127 151 173 161 158 166 161 149 134 132 127 115 299
274 262 240 214 204 197 182 173 174 171 166 167 171 172 182 197 198 194 188 167 170 174 170 164 157 139 111 94 92 77 61 60 102 158 170 180 169 171 150 137 144 151 181
285 271 249 221 211 195 185 187 183 173 175 178 182 184 187 203 203 200 189 162 165 174 176 171 162 153 152 140 125 101 71 44 60 89 139 158 157 152 150 149 146 125 97
291 280 258 228 213 200 198 196 186 178 183 185 183 185 190 205 207 199 174 149 167 176 176 173 171 178 194 172 149 142 116 49 75 106 114 125 135 146 141 117 121 112 142
296 286 266 233 216 211 207 197 186 184 188 184 187 189 191 201 209 203 180 163 174 177 181 192 199 199 209 190 164 166 179 188 131 104 87 81 76 103 137 146 149 142 156
299 288 268 241 226 217 204 192 183 183 181 187 193 197 197 204 211 209 194 175 183 184 191 198 211 214 212 204 183 182 202 182 161 147 131 116 97 92 99 128 145 149 159
301 289 274 253 234 213 197 193 186 183 188 194 198 204 207 209 211 216 211 201 193 186 196 197 207 216 215 213 197 198 209 180 150 155 167 182 184 186 165 146 149 154 164
304 293 282 262 236 211 201 199 193 193 198 201 202 210 210 204 213 219 220 215 208 197 201 207 211 218 217 217 211 206 198 163 162 181 199 204 196 180 151 138 131 139 161
303 294 280 259 242 221 213 206 203 202 205 205 207 212 209 201 205 210 213 221 217 209 202 215 217 219 211 204 211 211 178 175 181 194 200 192 159 156 169 165 162 155 169
302 294 280 260 246 233 224 220 216 214 210 207 210 206 205 214 215 207 200 205 200 193 171 171 179 184 191 186 189 191 184 188 200 185 187 184 184 182 183 169 166 162 182
302 297 285 268 255 243 237 240 230 226 226 223 217 209 215 220 217 213 213 213 210 202 186 186 196 200 204 204 205 205 201 202 200 194 195 196 196 194 190 174 172 182 203
298 296 289 274 262 251 241 238 244 235 230 230 227 224 222 221 221 217 214 214 212 204 203 202 205 207 209 207 206 207 208 205 196 196 200 200 198 196 193 195 193 198 212
297 296 292 279 269 260 249 242 238 235 233 230 229 228 228 227 223 219 215 207 209 208 207 208 210 209 208 209 209 211 210 201 196 200 200 199 195 193 197 202 201 204 211
298 294 292 288 277 271 263 252 244 237 236 231 219 224 226 227 224 220 212 205 203 208 210 212 211 209 208 208 209 207 206 205 201 198 202 200 197 195 205 208 207 220 215
293 293 295 292 285 276 268 259 251 243 238 232 228 221 205 206 213 211 209 203 206 210 212 214 213 211 209 207 206 204 207 208 205 204 204 201 197 197 205 207 206 209 213
288 292 294 291 284 280 275 267 258 249 243 237 233 221 209 207 212 211 209 209 210 212 211 212 211 209 208 206 204 206 208 211 207 205 203 200 196 200 204 205 206 208 208
281 282 285 287 285 282 280 274 267 258 249 245 242 232 227 220 215 214 214 214 214 214 210 207 210 209 206 205 204 206 210 212 209 204 201 198 197 200 198 201 204 203 203
275 276 278 281 281 285 286 278 273 265 256 247 240 231 226 220 217 216 217 215 211 210 206 205 209 211 206 204 203 204 209 212 207 198 197 197 197 198 197 200 200 198 205
273 272 272 275 277 277 279 280 276 271 265 255 243 235 231 226 221 217 214 209 205 205 201 203 208 210 205 203 207 209 212 211 201 197 194 193 193 194 194 197 199 202 203
272 270 269 268 269 271 275 278 277 273 271 266 255 242 233 228 224 218 209 202 198 200 200 199 204 207 208 206 204 206 211 210 203 195 190 190 191 191 191 194 196 197 201
272 269 269 268 266 266 269 273 277 276 272 268 262 251 237 226 219 211 201 194 193 195 195 196 199 200 202 208 211 210 212 213 210 202 190 186 188 191 190 195 195 197 198
Height
1483 1484 1484 1486 1487 1488 1490 1491 1494 1496 1497 1499 1501 1502 1503 1503 1503 1503 1502 1502 1501 1501 1500 1500 1500 1500 1499 1499 1500 1500 1500 1501 1501 1501 1502 1503 1503 1504 1504 1504 1504 1504 1504
1481 1481 1482 1483 1484 1485 1487 1488 1490 1492 1493 1495 1496 1497 1498 1498 1498 1497 1497 1496 1496 1496 1495 1495 1495 1495 1495 1495 1495 1495 1496 1497 1497 1497 1498 1499 1500 1500 1501 1501 1501 1501 1501
1478 1479 1479 1480 1481 1482 1483 1485 1487 1488 1489 1491 1492 1492 1493 1493 1492 1492 1492 1491 1491 1491 1491 1491 1491 1491 1491 1491 1491 1491 1492 1492 1493 1493 1494 1495 1496 1496 1497 1498 1498 1498 1498
1476 1476 1476 1477 1477 1478 1480 1481 1482 1484 1485 1486 1487 1488 1488 1488 1487 1487 1487 1486 1486 1486 1487 1487 1487 1487 1487 1487 1487 1487 1487 1488 1489 1489 1490 1491 1492 1493 1493 1494 1494 1495 1495
1472 1472 1472 1473 1473 1474 1475 1476 1478 1479 1481 1482 1482 1483 1483 1483 1482 1482 1482 1482 1482 1482 1482 1483 1483 1483 1483 1483 1483 1483 1484 1484 1485 1485 1486 1487 1488 1489 1490 1490 1491 1491 1492
1469 1468 1468 1468 1469 1469 1471 1472 1473 1475 1476 1477 1477 1478 1478 1478 1478 1477 1477 1477 1477 1478 1478 1479 1479 1479 1480 1479 1480 1480 1480 1481 1481 1482 1483 1484 1485 1486 1486 1487 1488 1488 1489
1464 1463 1463 1463 1463 1464 1466 1467 1468 1470 1471 1472 1472 1473 1473 1473 1473 1473 1473 1473 1473 1474 1474 1475 1475 1476 1476 1476 1476 1477 1477 1478 1478 1479 1480 1481 1482 1482 1483 1484 1485 1485 1486
1459 1459 1458 1458 1458 1459 1460 1461 1463 1464 1466 1466 1467 1467 1468 1468 1468 1468 1468 1469 1469 1470 1471 1471 1472 1473 1473 1473 1474 1474 1474 1475 1475 1476 1477 1478 1479 1480 1480 1482 1482 1483 1484
1455 1454 1453 1453 1453 1453 1454 1456 1457 1459 1460 1461 1461 1462 1463 1463 1464 1464 1464 1465 1465 1466 1467 1468 1469 1469 1470 1470 1471 1471 1472 1472 1473 1473 1474 1475 1476 1477 1478 1479 1480 1481 1481
1450 1449 1448 1448 1448 1448 1449 1450 1451 1453 1454 1455 1455 1456 1457 1458 1459 1459 1460 1461 1462 1462 1463 1464 1465 1466 1467 1467 1468 1468 1469 1470 1470 1471 1472 1473 1474 1475 1476 1477 1478 1479 1479
1446 1444 1443 1442 1442 1443 1443 1444 1445 1446 1447 1448 1450 1451 1452 1453 1454 1455 1456 1456 1458 1459 1460 1461 1462 1462 1463 1464 1465 1466 1466 1467 1468 1469 1470 1471 1472 1473 1474 1475 1476 1477 1477
1441 1439 1438 1437 1437 1437 1437 1438 1439 1440 1441 1442 1443 1445 1446 1447 1449 1450 1451 1452 1454 1455 1456 1457 1458 1459 1460 1461 1462 1463 1464 1465 1466 1467 1468 1469 1469 1470 1471 1472 1473 1474 1475
1436 1434 1433 1432 1431 1431 1431 1432 1433 1434 1435 1435 1437 1438 1440 1442 1443 1445 1446 1448 1449 1451 1452 1453 1455 1456 1457 1458 1459 1460 1461 1462 1463 1464 1465 1466 1467 1468 1469 1469 1470 1471 1472
1431 1429 1428 1426 1426 1425 1425 1426 1427 1428 1428 1429 1431 1432 1434 1436 1438 1439 1441 1443 1444 1446 1448 1449 1451 1452 1453 1455 1456 1457 1458 1459 1460 1461 1462 1463 1464 1465 1466 1467 1467 1468 1469
1426 1424 1422 1421 1420 1420 1420 1420 1420 1421 1423 1424 1425 1427 1428 1429 1432 1434 1435 1437 1439 1442 1443 1445 1446 1448 1449 1451 1452 1453 1455 1456 1457 1458 1459 1460 1461 1462 1462 1463 1464 1465 1465
1421 1419 1417 1416 1415 1414 1414 1414 1414 1415 1416 1417 1419 1421 1422 1424 1426 1428 1430 1432 1434 1436 1438 1439 1441 1443 1445 1446 1448 1449 1451 1452 1453 1454 1455 1456 1457 1458 1459 1459 1460 1461 1461
1416 1414 1412 1410 1409 1409 1408 1408 1408 1409 1410 1411 1412 1414 1416 1418 1420 1422 1424 1426 1429 1430 1432 1433 1435 1438 1440 1442 1443 1445 1446 1448 1449 1449 1451 1452 1453 1453 1454 1455 1455 1456 1456
1411 1409 1407 1405 1404 1403 1403 1402 1403 1403 1403 1404 1406 1408 1410 1412 1414 1416 1419 1421 1422 1424 1425 1427 1430 1432 1434 1436 1438 1440 1441 1442 1443 1444 1445 1446 1447 1448 1449 1450 1450 1451 1451
1405 1403 1401 1399 1398 1397 1397 1396 1396 1397 1397 1398 1400 1401 1403 1405 1407 1410 1412 1413 1415 1417 1419 1421 1424 1426 1428 1431 1432 1434 1435 1436 1438 1439 1440 1441 1442 1442 1443 1444 1445 1445 1446
1399 1397 1396 1394 1392 1391 1391 1390 1390 1390 1391 1392 1393 1395 1397 1398 1400 1402 1404 1406 1408 1410 1413 1415 1417 1420 1422 1424 1426 1427 1429 1430 1431 1432 1433 1434 1435 1436 1437 1438 1439 1439 1440
1394 1391 1390 1388 1387 1386 1385 1384 1384 1384 1385 1386 1387 1388 1390 1392 1393 1395 1397 1399 1401 1403 1406 1408 1411 1413 1415 1417 1418 1420 1421 1423 1424 1425 1426 1427 1428 1429 1430 1431 1432 1433 1434
1388 1386 1384 1383 1381 1380 1379 1379 1378 1378 1378 1379 1380 1382 1383 1385 1387 1388 1390 1392 1394 1396 1399 1401 1403 1405 1407 1409 1411 1412 1413 1415 1417 1418 1419 1420 1421 1422 1423 1424 1425 1426 1428
1382 1380 1379 1377 1376 1375 1374 1373 1373 1372 1373 1373 1374 1375 1377 1378 1380 1381 1383 1385 1387 1389 1391 1393 1395 1397 1399 1401 1403 1404 1406 1407 1409 1410 1411 1412 1414 1415 1416 1417 1418 1420 1421
1377 1375 1373 1372 1370 1369 1368 1368 1367 1367 1367 1367 1368 1369 1370 1372 1373 1375 1377 1378 1380 1382 1384 1386 1388 1390 1392 1394 1395 1397 1398 1400 1401 1402 1404 1405 1406 1408 1409 1410 1412 1413 1414
1372 1370 1368 1367 1365 1364 1363 1362 1362 1361 1361 1361 1362 1363 1364 1365 1367 1368 1370 1372 1374 1375 1377 1379 1381 1383 1385 1386 1388 1389 1391 1392 1393 1395 1396 1397 1399 1400 1402 1403 1405 1406 1408
1366 1365 1363 1361 1360 1359 1358 1357 1357 1356 1356 1356 1356 1357 1358 1359 1361 1362 1364 1366 1367 1369 1371 1373 1374 1376 1377 1379 1380 1382 1383 1385 1386 1388 1389 1390 1392 1394 1395 1397 1399 1400 1401